Weather History for KHSI - March, 2013

Change the Weather History Date:

Sunday, March 10, 2013

  Actual Average Record
Temperature  
Mean Temperature 24 °F 38 °F  
Max Temperature 30 °F 49 °F 78 °F (1967)
Min Temperature 18 °F 27 °F -4 °F (1998)
Degree Days  
Heating Degree Days 41 27  
Month to date heating degree days 317 291  
Since 1 July heating degree days 4944 4921  
Cooling Degree Days 0 0  
Month to date cooling degree days 0 0  
Year to date cooling degree days 0 0  
Moisture  
Dew Point 20 °F    
Average Humidity 87    
Maximum Humidity 100    
Minimum Humidity 74    
Precipitation  
Precipitation 0.33 in 0.05 in 0.55 in (1907)
Month to date precipitation 1.56 0.39  
Year to date precipitation 2.78 1.29  
Snow  
Snow 5.30 in 0.20 in 5.30 in (2013)
Month to date snowfall 5.3 1.9  
Since 1 July snowfall 29.1 24.3  
Snow Depth -    
Sea Level Pressure  
Sea Level Pressure 29.95 in    
Wind  
Wind Speed 29 mph (NNW)    
Max Wind Speed 44 mph    
Max Gust Speed 54 mph    
Visibility 2 miles    
Events Fog , Snow    
T = Trace of Precipitation, MM = Missing Value Source: NWS Daily Summary

Daily Weather History Graph

Daily Weather History Graph

Search for Another Location

Airport or City:

Trip Planner

Search our weather history database for the weather conditions in past years. The results will help you decide how hot, cold, wet, or windy it might be!

Date:

Astronomy

Mar. 10, 2013 Rise Set
Actual Time 7:52 AM CDT 7:35 PM CDT
Civil Twilight 7:25 AM CDT 8:02 PM CDT
Nautical Twilight 6:54 AM CDT 8:34 PM CDT
Astronomical Twilight 6:22 AM CDT 9:06 PM CDT
Moon 6:54 AM CDT (3/10) 6:44 PM CDT (3/10)
Length of Visible Light 12h 36m
Length of Day
11h 42m
Waning Crescent, 2% of the Moon is Illuminated
Mar 10
Waning Crescent
Mar 11
New
Mar 19
First Quarter
Mar 27
Full
Apr 2
Last Quarter

Hourly Weather History & Observations

Time (CDT) Temp. Windchill Dew Point Humidity Pressure Visibility Wind Dir Wind Speed Gust Speed Precip Events Conditions
12:17 AM 30.2 °F 17.8 °F 28.4 °F 93% 29.80 in 1.8 mi NNE 19.6 mph 33.4 mph 0.00 in Snow Light Snow
12:37 AM 30.2 °F 14.9 °F 28.4 °F 93% 29.78 in 0.8 mi North 31.1 mph 36.8 mph 0.00 in Snow Light Snow
12:53 AM 30.0 °F 14.7 °F 28.0 °F 92% 29.76 in 0.5 mi North 31.1 mph 41.4 mph 0.01 in Fog , Snow Snow
1:53 AM 28.9 °F 14.0 °F 28.0 °F 96% 29.77 in 0.2 mi North 27.6 mph 39.1 mph 0.03 in Fog Light Freezing Fog
3:48 AM 30.2 °F 15.7 °F 28.4 °F 93% 29.79 in 1.0 mi North 27.6 mph 36.8 mph 0.01 in Snow Light Snow
3:53 AM 30.0 °F 14.9 °F 28.0 °F 92% 29.81 in 1.0 mi North 29.9 mph 36.8 mph 0.01 in Snow Light Snow
4:00 AM 30.2 °F 15.4 °F 28.4 °F 93% 29.79 in 1.0 mi North 28.8 mph 39.1 mph 0.00 in Snow Light Snow
4:11 AM 30.2 °F 14.9 °F 28.4 °F 93% 29.79 in 0.8 mi North 31.1 mph 46.0 mph 0.00 in Snow Light Snow
4:53 AM 28.9 °F 11.1 °F 27.0 °F 92% 29.84 in 0.2 mi North 42.6 mph 51.8 mph 0.01 in Fog Light Freezing Fog
5:04 AM 28.4 °F 11.2 °F 26.6 °F 93% 29.80 in 0.2 mi North 38.0 mph 54.1 mph 0.01 in Fog Light Freezing Fog
5:53 AM 26.1 °F 8.8 °F 24.1 °F 92% 29.89 in 0.5 mi North 33.4 mph 46.0 mph 0.02 in Fog Light Freezing Fog
6:23 AM 26.6 °F 10.3 °F 23.0 °F 86% 29.86 in 1.8 mi North 29.9 mph 36.8 mph N/A   Overcast
6:53 AM 26.6 °F 12.0 °F 23.0 °F 86% 29.87 in 3.0 mi North 23.0 mph 39.1 mph N/A   Overcast
7:05 AM 26.6 °F 9.3 °F 21.2 °F 80% 29.88 in 1.8 mi North 34.5 mph 42.6 mph N/A   Overcast
7:53 AM 24.1 °F 6.6 °F 19.9 °F 84% 29.96 in 1.2 mi NNW 31.1 mph 41.4 mph 0.00 in Snow Light Snow
8:04 AM 23.0 °F 4.6 °F 19.4 °F 86% 29.90 in 0.5 mi NNW 33.4 mph 40.3 mph 0.00 in Fog , Snow Snow
8:53 AM 21.9 °F 3.1 °F 18.0 °F 85% 29.97 in 0.5 mi North 33.4 mph 42.6 mph 0.00 in Fog , Snow Light Snow
9:53 AM 21.0 °F 1.9 °F 18.0 °F 88% 30.00 in 0.5 mi NNW 33.4 mph 40.3 mph 0.01 in Fog , Snow Snow
10:25 AM 21.2 °F 1.9 °F 17.6 °F 86% 29.94 in 0.2 mi NNW 34.5 mph 42.6 mph 0.00 in Fog , Snow Snow
10:53 AM 21.0 °F 2.2 °F 18.0 °F 88% 30.01 in 0.2 mi NNW 32.2 mph 42.6 mph 0.01 in Fog , Snow Heavy Snow
11:14 AM 19.4 °F -1.1 °F 17.6 °F 93% 29.95 in 0.2 mi NNW 36.8 mph 46.0 mph 0.00 in Fog , Snow Heavy Snow
11:53 AM 19.9 °F 0.4 °F 17.1 °F 89% 30.04 in 0.2 mi NNW 33.4 mph 43.7 mph 0.01 in Fog , Snow Heavy Snow
12:21 PM 19.4 °F -0.3 °F 17.6 °F 93% 29.97 in 0.5 mi North 33.4 mph 42.6 mph 0.01 in Fog , Snow Snow
12:50 PM 19.4 °F 0.5 °F 17.6 °F 93% 29.98 in 0.5 mi North 29.9 mph 40.3 mph 0.01 in Fog Light Freezing Fog
12:53 PM 19.9 °F 1.3 °F 17.1 °F 89% 30.06 in 0.2 mi NNW 29.9 mph 40.3 mph 0.01 in Fog , Snow Heavy Snow
1:06 PM 21.2 °F 3.5 °F 17.6 °F 86% 29.98 in 0.5 mi NNW 27.6 mph 36.8 mph 0.00 in Fog , Snow Snow
1:53 PM 21.9 °F 3.7 °F 18.0 °F 85% 30.05 in 0.5 mi NNW 31.1 mph 40.3 mph 0.00 in Fog , Snow Snow
2:53 PM 23.0 °F 5.1 °F 19.0 °F 85% 30.04 in 0.2 mi North 31.1 mph 40.3 mph 0.00 in Fog , Snow Heavy Snow
3:53 PM 23.0 °F 5.7 °F 19.0 °F 85% 30.04 in 0.5 mi NNW 28.8 mph 36.8 mph 0.01 in Fog , Snow Snow
4:46 PM 24.8 °F 7.6 °F 19.4 °F 80% 29.97 in 0.5 mi NNW 31.1 mph 43.7 mph 0.00 in Snow Snow
4:53 PM 24.1 °F 7.4 °F 19.0 °F 81% 30.04 in 1.0 mi NNW 27.6 mph 38.0 mph 0.00 in Snow Light Snow
5:33 PM 24.8 °F 8.4 °F 17.6 °F 74% 29.97 in 2.5 mi NNW 27.6 mph 41.4 mph 0.00 in Snow Blowing Snow
5:53 PM 24.1 °F 7.4 °F 19.0 °F 81% 30.04 in 1.8 mi NNW 27.6 mph 36.8 mph 0.00 in Snow Blowing Snow
6:09 PM 24.8 °F 9.3 °F 17.6 °F 74% 29.97 in 3.0 mi NNW 24.2 mph 35.7 mph N/A Snow Blowing Snow
6:22 PM 24.8 °F 8.1 °F 17.6 °F 74% 29.96 in 1.8 mi NNW 28.8 mph 36.8 mph N/A Snow Blowing Snow
6:28 PM 24.8 °F 9.0 °F 17.6 °F 74% 29.97 in 3.0 mi NNW 25.3 mph 33.4 mph N/A Snow Blowing Snow
6:40 PM 24.8 °F 9.0 °F 17.6 °F 74% 29.97 in 2.5 mi NNW 25.3 mph 33.4 mph N/A Snow Blowing Snow
6:53 PM 24.1 °F 7.1 °F 18.0 °F 77% 30.04 in 2.5 mi NNW 28.8 mph 36.8 mph N/A Snow Blowing Snow
7:09 PM 24.8 °F 8.1 °F 17.6 °F 74% 29.97 in 3.0 mi NNW 28.8 mph 36.8 mph N/A Snow Blowing Snow
7:53 PM 24.1 °F 9.4 °F 17.1 °F 75% 30.06 in 6.0 mi NNW 20.7 mph 36.8 mph N/A Snow Blowing Snow
8:53 PM 23.0 °F 6.9 °F 17.1 °F 78% 30.07 in 9.0 mi NNW 24.2 mph 29.9 mph 0.00 in   Mostly Cloudy
9:53 PM 23.0 °F 6.3 °F 16.0 °F 74% 30.06 in 6.0 mi NNW 26.5 mph 34.5 mph 0.00 in   Overcast
10:53 PM 21.9 °F 5.8 °F 16.0 °F 78% 30.07 in 10.0 mi NNW 23.0 mph - 0.00 in   Mostly Cloudy
11:53 PM 19.9 °F 3.2 °F 15.1 °F 81% 30.07 in 10.0 mi NNW 23.0 mph - N/A   Clear
12:53 AM 19.0 °F 3.6 °F 12.9 °F 77% 30.06 in 10.0 mi North 18.4 mph 24.2 mph N/A   Clear